Regional Weather Roundup
Issued by NWS

Home | Current Version | Previous Version | Graphics & Text | Print | Product List | Glossary On
Versions: 1 2 3 4 5 6 7 8 9 10 11 12 13 14 15 16 17 18 19 20 21 22 23 24 25 26 27
000
ASUS45 KTFX 171910
RWRMT
MONTANA REGIONAL WEATHER ROUNDUP
NATIONAL WEATHER SERVICE GREAT FALLS MT
1200 PM MST FRI NOV 17 2017

NOTE: "FAIR" INDICATES FEW OR NO CLOUDS BELOW 12000 FEET WITH NO
SIGNIFICANT WEATHER AND/OR OBSTRUCTIONS TO VISIBILITY.

MTZ001>007-043-172000-
WEST OF THE DIVIDE

CITY           SKY/WX    TMP DP  RH WIND       PRES   REMARKS
KALISPELL      PTSUNNY   38  31  76 E5        29.75R
MISSOULA       PTSUNNY   35  31  85 S9        29.82R WCI  28
BUTTE          CLOUDY    33  17  51 NW6       29.75S WCI  28
MULLAN PASS    LGT SNOW  23  20  88 VRB5      29.77R FOG
ANACONDA         N/A     34  16  47 SW14G22   29.76R WCI  24
EUREKA           N/A     43  25  49 MISG      29.73R
HAMILTON         N/A     36  25  64 S7        29.85R WCI  30
LIBBY            N/A     41  34  75 NE3       29.79R
PLAINS           N/A     40  31  70 NW12      29.86R
RONAN            N/A     39  26  60 SW13      29.85R WCI  31
$$

MTZ008-052>055-172000-
SOUTHWEST MONTANA

CITY           SKY/WX    TMP DP  RH WIND       PRES   REMARKS
BOZEMAN        FAIR      34  26  72 E8        29.75S WCI  27
DILLON         FAIR      36  13  38 W12       29.76S WCI  28
W YELLOWSTONE  FAIR      30  19  64 W8G17     29.71R WCI  23
ENNIS          CLOUDY    36  14  41 W15G22    29.79S WCI  26
$$

MTZ009-010-012-014-046-048-049-054-172000-
EAST SLOPES AND CENTRAL MONTANA

CITY           SKY/WX    TMP DP  RH WIND       PRES   REMARKS
CUT BANK       FAIR      36  25  64 W26G36    29.60S WCI  24
GREAT FALLS    FAIR      45  17  32 W26G35    29.65R
MALMSTROM AFB  FAIR      43  17  36 W18G25    29.66R
HELENA         FAIR      40  21  46 W17G26    29.71R
BOWMANS CRNR   FAIR      39  16  38 W20       29.65R WCI  30
CHOTEAU          N/A     41  16  36 W16       29.64S
FAIRFIELD        N/A    N/A N/A N/A SW26        N/A
POWER          FAIR      40  19  42 W18       29.63S
RAYNESFORD     PTSUNNY   40  17  39 W24       29.65S
ULM            FAIR      43  19  38 W18       29.67S
$$

MTZ011-013-016-021-045-047-050-051-172000-
NORTH CENTRAL MONTANA

CITY           SKY/WX    TMP DP  RH WIND       PRES   REMARKS
HAVRE          FAIR      36  29  75 SW13      29.62R WCI  27
LEWISTOWN      CLOUDY    41  19  41 NW16G29   29.63F
N BAR RANCH    FAIR      37  16  41 W12G17    29.64F WCI  30
CHINOOK          N/A     30  25  80 NW3       29.62S
DENTON         PTSUNNY   38  24  57 N13G23    29.62R WCI  30
GEYSER         FAIR      39  17  41 W22G30    29.63S WCI  28
GRASS RANGE    FAIR      42  16  35 W24G37    29.59F
STANFORD       FAIR      40  14  33 W28G33    29.62S
WINIFRED       PTSUNNY   37  26  63 NW18G25   29.63R WCI  27
$$

MTZ017>020-022>027-061-062-172000-
NORTHEAST MONTANA

CITY           SKY/WX    TMP DP  RH WIND       PRES   REMARKS
GLASGOW        FAIR      38  27  64 CALM      29.60F
GLENDIVE       FAIR      37  28  70 SE7       29.62F WCI  32
JORDAN           N/A     48  20  32 W16       29.60F
SIDNEY         FAIR      34  23  64 S3        29.64
WOLF POINT     FAIR      33  23  66 SE3       29.63F
MALTA          SUNNY     28  23  80 NE5       29.62S
PLENTYWOOD       N/A     25  14  63 CALM      29.64F
POPLAR           N/A     34  23  64 CALM      29.63F
$$

MTZ028>42-056>058-172000-
SOUTHCENTRAL AND SOUTHEAST MONTANA

CITY           SKY/WX    TMP DP  RH WIND       PRES   REMARKS
BAKER          FAIR      43  32  65 W9        29.63F
BILLINGS       PTSUNNY   40  33  76 SW9       29.67S
LIVINGSTON     PTSUNNY   37  26  64 W15       29.71R WCI  28
MILES CITY     FAIR      43  36  76 VRB6      29.62F
BIG TIMBER     SUNNY     37  23  56 W16       29.72R WCI  28
FORSYTH          N/A     45  36  70 W9        29.62F
HARLOWTON      FAIR      37  22  54 W30G39    29.66R WCI  24
LAUREL           N/A     43  28  56 NW8       29.69R
$$

REGIONAL REPORTS...DAKOTAS

CITY           SKY/WX    TMP DP  RH WIND       PRES   REMARKS
WILLISTON      FAIR      29  14  53 CALM      29.66F
MINOT          FAIR      25  12  58 NW6       29.68F WCI  18
DICKINSON      FAIR      39  26  59 NE3       29.62F
BEACH          FAIR      43  32  65 S5        29.65F
CROSBY         FAIR      21  10  63 SW3       29.68F
TIOGA          FAIR      25  14  63 CALM      29.66F
WATFORD CITY   FAIR      28  18  64 CALM      29.64F
BISMARCK       FAIR      35  23  61 NW6       29.69F WCI  30
GRAND FORKS    CLOUDY    26  17  68 NW15      29.70S WCI  14
FARGO          FAIR      35  26  69 NW15      29.67F WCI  25
BUFFALO SD       N/A     44  34  67 W14       29.57F
RAPID CITY     CLOUDY    42  36  79 S8        29.63F
$$

REGIONAL REPORTS...WYOMING/IDAHO/WASHINGTON

CITY           SKY/WX    TMP DP  RH WIND       PRES   REMARKS
GILLETTE       CLOUDY    35  34  96 N12       29.67R WCI  27
SHERIDAN       CLOUDY    37  34  89 S7        29.64F WCI  32
BUFFALO WY     CLOUDY    32  31  96 SW3       29.67F
CODY           FAIR      39  26  59 W8        29.67S
YELLOWSTONE LA   N/A     24  20  84 W9        29.71S WCI  14
IDAHO FALLS    CLOUDY    35  31  85 SW15G23   29.80S WCI  25
SALMON         CLOUDY    37  24  59 CALM      29.86R
BOISE          CLOUDY    43  26  51 NW21G31   30.03R
SPOKANE        FAIR      39  32  76 SW20      29.89R WCI  29
$$

REGIONAL REPORTS...ALBERTA

CITY           SKY/WX    TMP DP  RH WIND       PRES   REMARKS
EDMONTON       PTSUNNY    7   0  72 W8        29.72R WCI  -6
CALGARY        LGT SNOW   9   5  85 CALM      29.61  VSB 5/8
LETHBRIDGE     MOSUNNY   12   7  79 CALM      29.65R
MEDICINE HAT   PTSUNNY   14   7  73 NE5       29.67R
$$

REGIONAL REPORTS...SASKATCHEWAN

CITY           SKY/WX    TMP DP  RH WIND       PRES   REMARKS
SWIFT CURRENT  SUNNY     12   3  67 CALM      29.62R
REGINA         MOSUNNY    9   3  78 SW5       29.67F
SASKATOON      PTSUNNY   14   5  67 W16       29.69F WCI  -2
$$




USA.gov is the U.S. government's official web portal to all federal, state and local government web resources and services.